Location: Bluford
(38.3309°N, 88.7259°W)
Time: 03:14:05
(UTC+00:00)

Daily predictions for brighter satellites

Satellite Brightness Start Highest point End
(mag) Time Altitude Azimuth Time Altitude Azimuth Time Altitude Azimuth
Resurs 1-3 4.4 01:35:03 10° SE 01:39:02 35° ENE 01:43:02 10° N
Cosmos 2298 Rocket 4.2 01:35:35 10° NNW 01:40:54 63° ENE 01:46:09 10° SSE
Cosmos 1758 Rocket 3.8 01:36:44 10° SSW 01:41:02 75° W 01:45:21 10° N
Cosmos 1125 Rocket 3.9 01:37:11 10° N 01:42:21 50° ENE 01:47:29 10° SE
NOSS 3-2 (A) 4.3 01:35:28 10° NW 01:43:17 81° WSW 01:52:02 10° SSE
deb Kosmos-1763 3.9 01:40:50 10° SSW 01:44:19 75° ESE 01:47:50 10° NNE
Cosmos 1869 3.2 01:48:02 10° N 01:51:53 63° E 01:55:41 10° SSE
COSMOS 2406 3.4 01:48:19 10° S 01:53:44 49° ESE 01:59:12 10° NNE
Cosmos 2058 3.7 01:50:38 10° SSE 01:54:20 32° E 01:58:04 10° NNE
Cosmos 1825 2.4 01:52:01 10° S 01:55:37 49° E 01:59:16 10° NNE
Meteor 1-27 4.4 01:50:27 10° N 01:56:14 83° W 02:02:02 10° S
NOSS 3-4 (A) 3.4 01:50:56 10° SW 01:56:42 84° WNW 02:02:50 10° NNE
NOSS 3-4 (C) 3.4 01:51:03 10° SSW 01:56:49 85° WNW 02:02:56 10° NNE
USA 306 3.0 01:52:41 10° NW 01:56:58 73° NE 02:00:51 12° SE
SAR-Lupe-1 4.3 01:54:11 10° N 01:57:45 73° WNW 02:01:18 10° SSW
SAR-Lupe-4 3.6 01:54:36 10° NNE 01:58:11 84° WNW 02:01:45 10° SSW
OBJECT-B 1.7 01:57:12 10° S 02:00:17 48° W 02:03:24 10° NNW
SL-19 R/B 4.4 01:58:27 10° S 02:01:35 60° WSW 02:05:09 10° NNW
Cosmos 405 Rocket 3.6 01:58:35 10° SSW 02:02:21 54° W 02:06:15 10° N
SJ-6B 3.2 01:59:15 10° S 02:02:56 61° WSW 02:06:39 10° NNW
Atlas Centaur 2 3.1 02:02:20 10° S 02:03:48 12° SSE 02:04:35 11° SSE
USA 32 4.0 01:59:41 10° N 02:04:56 73° E 02:10:09 10° S
ATLAS 2AS CENTAUR R/B 3.1 01:57:42 10° SSW 02:05:25 62° ESE 02:13:07 10° NE
Cosmos 1656 3.7 02:00:43 10° NNW 02:06:21 68° ENE 02:11:34 12° SSE
Centaur D-1AR AC-39 3.9 02:06:04 10° SSW 02:06:55 10° SSW 02:07:40 10° S
Cosmos 1980 Rocket 3.8 02:04:16 10° N 02:08:16 19° NE 02:12:06 10° E
Cosmos 1437 Rocket 2.6 02:06:18 10° N 02:10:08 78° E 02:14:02 10° SSE
NOSS 3-2 (C) 4.2 02:02:30 10° NNW 02:10:22 87° WSW 02:18:50 11° SSE
Resurs 01 Rocket 2.0 02:08:50 13° SE 02:12:35 46° ENE 02:16:50 10° N
Cosmos 1408 4.0 02:12:58 10° SSW 02:16:25 40° W 02:19:53 10° N
Cosmos 1437 3.0 02:15:23 10° N 02:18:00 37° ENE 02:19:12 24° SE
NOSS 2 (A) 4.0 02:17:19 10° NNW 02:19:51 64° NE 02:20:51 29° SE
RESURS DK-1 3.1 02:18:09 10° S 02:21:49 31° ESE 02:25:30 10° NE
Cosmos-2242 4.4 02:17:51 10° NNW 02:21:50 38° W 02:25:46 10° SSW
Cosmos 2098 Rocket 3.6 02:22:42 19° E 02:22:54 20° E 02:25:11 10° NE
ATLAS 3B R/B 4.2 02:21:23 10° NNW 02:27:12 26° NE 02:32:46 11° E
USA 267 3.7 02:22:32 10° ENE 02:28:31 37° SE 02:34:30 10° SSW
CENTAUR R/B 3.7 02:20:55 10° NW 02:29:11 60° WSW 02:37:50 10° SSE
Cosmos 1633 3.2 02:29:09 24° SE 02:30:33 34° E 02:33:51 10° NNE
SPOT 1/Viking Rocket 4.0 02:28:26 19° SE 02:31:44 44° ENE 02:36:39 10° N
MetOp-B 4.4 02:28:46 19° SE 02:32:30 53° ENE 02:37:42 10° N
Cosmos 44 Rocket 3.4 02:29:37 10° SSW 02:34:46 86° ESE 02:40:02 10° NNE
Meteor 2-2 Rocket 4.2 02:29:35 10° N 02:35:26 81° E 02:40:10 15° SSE
ARIANE 5 R/B 4.0 02:38:33 21° E 02:40:09 25° ENE 02:43:49 10° NNE
SL-16 R/B 4.5 02:39:32 10° NE 02:40:21 10° NE 02:41:10 10° NE
ERS-2 3.5 02:37:08 10° N 02:40:34 40° WNW 02:43:59 10° SW
Ariane Rocket 3.6 02:37:51 10° S 02:42:48 54° W 02:47:47 10° NNW
SPOT 5 4.1 02:44:08 20° E 02:45:18 22° ENE 02:48:36 10° NNE
Cosmos 2180 Rocket 4.4 02:40:22 10° N 02:46:34 81° E 02:51:12 18° S
ATLAS 2A CENTAUR R/B 4.4 02:31:26 10° WSW 02:46:36 34° SSW 02:49:13 24° SSE
SEDSat Delta rocket 3.7 02:46:09 10° SW 02:49:40 29° S 02:49:48 29° SSE
CZ-2C R/B 3.6 02:45:51 10° NNE 02:50:24 72° ESE 02:53:38 18° S
Cosmos 1242 Rocket 3.5 02:48:02 10° NNW 02:51:29 44° W 02:53:50 18° SSW
OAO 2 Rocket 3.5 02:46:36 10° W 02:51:29 53° S 02:53:28 32° SE
CARTOSAT-1 4.2 02:51:42 31° ESE 02:53:02 40° ENE 02:57:04 10° N
Cosmos 2221 2.5 02:49:32 10° N 02:53:51 85° W 02:56:11 27° S
USA 307 3.9 02:52:02 10° WNW 02:55:57 36° SW 02:57:40 25° S
Cosmos 371 Rocket 4.1 02:59:31 10° N 03:03:55 34° ENE 03:05:07 30° E
ERBS 3.5 03:02:27 10° NNW 03:05:20 29° NE 03:05:39 28° NE
Terra 3.0 03:04:43 25° E 03:05:41 27° ENE 03:09:41 10° NNE
Cosmos 1697 Rocket 2.8 03:00:54 10° NNW 03:06:35 75° WSW 03:09:29 30° S
GRACE-FO 1 4.4 03:03:30 10° N 03:07:07 78° E 03:07:43 59° SSE
GRACE-FO 2 4.4 03:03:57 10° N 03:07:34 79° E 03:08:09 59° SSE
Hubble Space Telescope 2.7 03:05:43 10° SW 03:07:15 17° SSW 03:07:15 17° SSW
Cosmos 1606 2.7 03:06:26 10° N 03:10:13 74° W 03:11:14 46° SSW
Cosmos 2082 Rocket 2.4 03:05:01 10° SSW 03:10:35 71° WNW 03:16:15 10° NNE
USA 308 4.4 03:09:12 10° WNW 03:12:42 25° SW 03:13:51 22° SSW
SPOT 3 Rocket 4.1 03:09:28 21° S 03:12:50 55° W 03:17:59 10° NNW
Cosmos 1833 Rocket 4.5 03:09:31 10° WSW 03:14:31 32° WNW 03:19:33 10° N
Cosmos 2278 4.0 03:09:00 10° NNW 03:14:31 52° ENE 03:16:22 37° ESE
Meteor 2-15 4.4 03:09:21 10° N 03:15:23 64° E 03:17:44 37° SSE
BREEZE-M R/B 3.5 03:11:32 10° SSW 03:17:23 39° SSE 03:17:23 39° SSE
Cosmos 2195 Rocket 4.5 03:16:45 35° SSE 03:19:18 62° E 03:25:20 10° NNE
Cosmos 1782 4.2 03:20:23 10° NNE 03:23:15 25° ENE 03:23:15 25° ENE
Cosmos 2151 2.8 03:23:49 55° S 03:24:43 89° W 03:28:59 10° N
Cosmos 2360 Rocket 4.4 03:28:49 10° NNE 03:30:43 12° NE 03:32:38 10° ENE
Meteor 2-15 Rocket 4.4 03:25:09 10° N 03:31:13 67° E 03:32:59 46° SE
Centaur D AC-29 4.2 03:26:00 10° W 03:31:44 13° WSW 03:35:02 10° SSW
Cosmos 1092 Rocket 3.9 03:29:20 34° S 03:32:16 84° E 03:38:35 10° N
GP-B 2.9 03:30:02 10° N 03:34:29 80° E 03:34:52 72° SSE
Meteor 2-3 Rocket 3.6 03:36:27 42° S 03:38:29 88° ESE 03:44:12 10° N
Cosmos 332 Rocket 4.3 03:34:37 10° N 03:39:19 45° ENE 03:39:38 45° E
Cosmos 1680 Rocket 4.2 03:40:32 38° E 03:40:32 38° E 03:44:45 10° NE
Cosmos 2369 4.1 03:36:02 10° NNW 03:41:32 53° WSW 03:43:19 38° SSW
ERS-1 Rocket 2.9 03:40:52 60° SSE 03:41:48 89° WSW 03:46:51 10° NNW
Spot 2 Rocket 3.9 03:41:46 41° SSW 03:43:16 59° W 03:48:20 10° NNW
Cosmos 1151 Rocket 3.9 03:41:15 10° N 03:44:42 36° ENE 03:44:42 36° ENE
Resurs 01 Rocket 4.2 03:46:50 10° SW 03:49:17 15° W 03:51:46 10° WNW
Okean 3 Rocket 4.2 03:50:13 46° NE 03:50:13 46° NE 03:53:48 10° NNE
OAO 1 Rocket 4.5 03:45:15 10° W 03:50:12 61° SSW 03:50:12 61° SSW
Cosmos 2026 Rocket 4.0 03:49:08 42° S 03:51:32 86° W 03:57:53 10° N
BREEZE-M DEB (TANK) 3.5 03:48:08 10° NW 03:51:55 65° NE 03:55:45 32° ESE
BREEZE M DEB (TANK) 3.6 03:48:56 10° WSW 03:52:21 83° NNW 04:11:55 10° ENE
Cosmos 1980 Rocket 2.4 03:47:08 10° NNW 03:52:40 60° WSW 03:53:52 49° SSW
Cosmos 2322 Rocket 3.2 03:55:17 10° N 04:00:17 32° ENE 04:00:59 31° ENE
Cosmos 158 Rocket 4.5 03:58:13 33° SW 04:00:19 56° WNW 04:05:27 10° N
H-2A R/B 4.0 03:56:36 10° NNE 03:59:53 53° NNE 03:59:53 53° NNE
Cosmos 1271 Rocket 3.4 03:59:59 10° NNW 04:03:10 54° NNW 04:03:10 54° NNW
ISS -1.3 04:08:33 10° NNW 04:10:34 20° N 04:10:34 20° N
USA 267 3.8 04:05:15 10° NE 04:11:39 59° NW 04:18:02 10° WSW
ARIANE 5 R/B 4.1 04:16:06 27° WSW 04:16:28 28° W 04:20:19 10° NW
Meteor 2-21 4.3 04:16:06 71° SSE 04:16:47 82° E 04:22:59 10° N
Cosmos 2292 Rocket 4.2 04:16:19 71° SSW 04:16:56 82° W 04:23:47 10° N
ATLAS 3B R/B 2.8 04:11:23 10° NW 04:18:34 75° WSW 04:20:00 59° S
SPOT 5 4.1 04:23:22 29° W 04:23:22 29° W 04:27:00 10° NW
SL-16 R/B 2.2 04:19:53 10° NNW 04:25:32 68° ENE 04:25:32 68° ENE
Cosmos 304 Rocket 4.2 04:22:44 10° NNW 04:26:50 56° WNW 04:26:50 56° WNW
Cosmos 2219 Rocket 4.4 04:25:18 10° NNE 04:27:52 13° NE 04:29:34 12° ENE
Cosmos 1655 Rocket 3.9 04:32:56 69° E 04:32:59 69° E 04:39:20 10° NNE
Cosmos 1553 Rocket 3.8 04:27:02 10° N 04:33:07 83° W 04:33:26 79° SW
Cosmos 2266 Rocket 4.0 04:37:31 64° ENE 04:37:31 64° ENE 04:43:18 10° NNE
Meteor 1-10 Rocket 4.4 04:34:03 10° N 04:39:03 62° NE 04:39:03 62° NE
COSMOS 2455 4.3 04:44:29 24° ENE 04:44:29 24° ENE 04:47:20 10° NE
USA 234 3.7 04:41:00 41° E 04:42:56 54° NE 04:49:17 10° NW
Terra 3.3 04:43:36 28° W 04:43:36 28° W 04:47:26 10° NW
Meteor 2-16 Rocket 4.3 04:50:10 85° WNW 04:50:10 85° WNW 04:56:12 10° N
ALOS 2 4.3 04:56:16 28° NNE 04:56:16 28° NNE 04:58:49 10° N
S3M 4.0 04:54:11 10° N 05:00:33 76° W 05:00:35 76° W
Cosmos 2056 Rocket 3.9 04:56:15 10° NNW 05:00:39 60° N 05:00:39 60° N
Cosmos 1833 4.5 05:07:05 66° NNE 05:07:05 66° NNE 05:12:03 10° NNE
Cosmos 2333 Rocket 3.4 05:04:34 10° N 05:09:38 33° ENE 05:09:38 33° ENE
Cosmos 2360 Rocket 2.5 05:10:01 10° NNW 05:14:45 62° N 05:14:45 62° N
Cosmos 2297 Rocket 4.4 05:37:04 14° ENE 05:37:04 14° ENE 05:38:29 10° ENE
Cosmos 2322 Rocket 3.6 05:39:17 10° NW 05:42:47 29° WNW 05:42:47 29° WNW
Cosmos 2227 Rocket 4.5 05:47:43 13° ENE 05:47:43 13° ENE 05:48:57 10° ENE
Cosmos 2285 Rocket 4.1 05:52:34 10° NNW 05:58:13 72° N 05:58:13 72° N
COSMOS 2428 3.2 06:01:33 10° NNW 06:06:19 56° NNE 06:06:19 56° NNE
SL-16 R/B 4.5 06:05:55 10° WNW 06:07:23 13° W 06:07:23 13° W
Cosmos 2219 Rocket 2.8 06:07:00 10° NNW 06:11:15 53° NNW 06:11:15 53° NNW
Thor Agena Rocket 4.4 06:11:42 10° N 06:15:19 46° N 06:15:19 46° N
USA 234 4.3 06:28:20 32° W 06:28:20 32° W 06:32:08 10° WNW
COSMOS 2455 3.7 06:27:35 40° WNW 06:27:53 40° NW 06:33:32 10° NNE
Cosmos 2219 4.2 06:34:37 39° ENE 06:34:37 39° ENE 06:38:52 10° NE
CZ-3B R/B 4.4 06:32:14 10° NW 06:33:35 17° NW 06:33:35 17° NW
Cosmos 1709 Rocket 4.2 06:37:29 61° ENE 06:37:29 61° ENE 06:43:25 10° NNE
NOSS 0 Rocket 4.1 06:32:29 10° NNW 06:38:37 66° ENE 06:38:37 66° ENE
Cosmos 1745 Rocket 4.2 06:45:31 63° NW 06:45:31 63° NW 06:51:13 10° N
ATLAS 5 CENTAUR R/B 2.7 06:47:49 10° NNW 06:53:35 63° NE 06:54:21 58° E
Cosmos 2333 Rocket 3.8 06:48:51 10° NW 06:51:36 24° WNW 06:51:36 24° WNW
Meteor 1-11 Rocket 4.1 06:56:39 58° ENE 06:56:39 58° ENE 07:01:26 10° NNE
Lacrosse 5 3.0 06:57:57 38° ENE 06:57:57 38° ENE 07:01:09 10° NE
SL-16 R/B 3.6 07:00:08 31° ESE 07:02:07 39° ENE 07:07:47 10° N
Cosmos 1980 3.9 06:57:12 10° NNW 07:02:27 67° NE 07:02:27 67° NE
Resurs 1-4 Rocket 2.9 06:58:55 10° NNE 07:03:26 43° E 07:03:26 43° E
CZ-4 R/B 4.5 07:12:19 10° N 07:16:20 54° NNW 07:16:20 54° NNW
Cosmos 2297 Rocket 2.4 07:18:52 61° NW 07:18:52 61° NW 07:24:08 10° NNE
Cosmos 2074 Rocket 4.4 07:23:14 50° ESE 07:24:05 53° E 07:30:07 10° NNE
NPP 4.0 07:18:56 10° NNE 07:24:07 55° E 07:24:07 55° E
Cosmos 2237 Rocket 2.3 07:21:24 10° NNW 07:26:22 67° NW 07:26:22 67° NW
ASTEX 1 3.9 07:29:44 54° NNW 07:29:44 54° NNW 07:33:34 10° N
Cosmos 2227 Rocket 2.3 07:29:32 67° NW 07:29:32 67° NW 07:34:58 10° NNE
Meteor 1-13 Rocket 4.3 07:24:48 10° NNW 07:30:08 68° WNW 07:30:08 68° WNW
USA 229 DEB 4.1 07:23:43 10° NW 07:30:34 52° WSW 07:30:34 52° WSW
ADEOS Rocket 3.6 07:29:11 35° ESE 07:30:55 46° ENE 07:36:09 10° N
USA 229 4.1 07:23:48 10° NW 07:30:42 53° WSW 07:30:42 53° WSW
Cosmos 1743 4.3 07:39:45 33° N 07:39:45 33° N 07:41:59 10° N
CZ-2D R/B 2.0 07:36:57 10° N 07:42:22 82° WNW 07:42:22 82° WNW
Cosmos 2181 Rocket 3.8 07:36:30 10° N 07:42:50 75° W 07:43:19 71° SW
ADEOS II 2.6 07:39:09 10° NNE 07:44:15 48° E 07:44:45 47° ESE
IRS-1D 4.5 07:43:25 10° NNE 07:48:00 36° E 07:48:42 35° ESE
Cosmos 614 Rocket 3.9 07:50:06 74° ESE 07:50:08 74° ESE 07:55:21 10° NNE
SL-16 R/B 2.7 07:45:25 10° NNW 07:51:00 56° ENE 07:53:47 28° SE
Meteor 1-23 Rocket 4.1 07:47:44 10° N 07:53:27 82° W 07:53:54 75° SSW
Cosmos 2263 Rocket 3.3 07:54:29 30° SE 07:55:51 33° ESE 08:00:53 10° NE
Cosmos 1975 3.8 07:57:17 43° E 07:57:17 43° E 08:00:55 10° NNE
ATLAS CENTAUR R/B 3.7 07:57:40 13° ESE 07:57:40 13° ESE 07:59:07 10° E
SL-19 R/B 4.5 07:54:31 10° NNE 08:00:40 82° ESE 08:02:07 56° S
Cosmos 2221 Rocket 3.7 07:56:50 10° N 08:01:24 72° E 08:01:26 72° E
CZ-4C R/B 4.4 07:54:48 10° NNW 08:01:29 36° NE 08:09:03 10° ESE
Cosmos 407 Rocket 4.3 08:01:06 39° SE 08:02:08 44° ESE 08:07:07 10° NNE
Cosmos 1461 3.6 08:05:09 51° ESE 08:05:09 51° ESE 08:09:26 10° NE
Cosmos 1992 Rocket 3.9 08:00:50 10° NNW 08:05:56 70° W 08:05:56 70° W
Cosmos 2344 3.8 08:04:50 39° S 08:07:30 57° ESE 08:14:48 10° NE
Meteor 1-29 4.2 08:08:27 10° NNE 08:10:46 40° NE 08:10:46 40° NE
UNK 4.2 08:14:59 47° WNW 08:14:59 47° WNW 08:18:53 10° NNW
Helios 1B rocket 3.0 08:11:31 10° N 08:14:58 47° NW 08:14:58 47° NW
Cosmos 1674 Rocket 4.0 08:13:14 10° N 08:17:37 58° E 08:18:39 45° SE
Cosmos 1238 Rocket 3.6 08:18:43 38° NE 08:18:43 38° NE 08:21:03 10° NNE
Cosmos 1842 3.4 08:18:56 10° N 08:22:21 69° NNW 08:22:21 69° NNW
Nadezhda 3 Rocket 4.0 08:16:54 10° N 08:23:17 82° E 08:26:33 31° SSE
Cosmos 2327 Rocket 4.4 08:25:50 46° SSW 08:27:49 77° W 08:34:00 10° N
BREEZE-M DEB (TANK) 3.7 08:30:27 44° NE 08:30:27 44° NE 08:32:04 10° NE
IDEFIX/ARIANE 42P 2.5 08:29:25 10° NNE 08:34:38 80° ESE 08:36:26 42° S
CBERS-1 4.0 08:29:35 10° NNE 08:34:45 83° ESE 08:36:25 44° S
Cosmos 2251 Rocket 4.3 08:36:33 33° W 08:37:30 35° WNW 08:42:21 10° N
ATLAS 5 CENTAUR R/B 3.9 08:33:18 10° WNW 08:35:47 19° W 08:35:47 19° W
Cosmos 1378 Rocket 3.4 08:34:24 10° N 08:38:47 88° E 08:39:54 50° S
Lacrosse 5 3.5 08:37:07 18° WNW 08:39:27 25° NNW 08:43:38 10° NNE
Cosmos 1908 Rocket 3.4 08:42:21 51° S 08:43:24 85° E 08:47:45 10° N
Resurs 1-4 Rocket 3.6 08:39:30 10° NNW 08:43:28 22° WNW 08:44:30 21° W
USA 215 3.9 08:38:21 10° ENE 08:44:35 46° SE 08:47:58 26° S
Cosmos 1356 Rocket 3.2 08:44:46 64° SW 08:45:14 73° W 08:49:16 10° N
SL-16 R/B 3.3 08:45:14 30° WSW 08:45:44 31° W 08:51:05 10° NW
Cosmos 1733 Rocket 4.2 08:50:26 27° W 08:50:33 27° WNW 08:54:22 10° NNW
Cosmos 1674 4.5 08:47:37 10° NNE 08:51:03 31° ENE 08:54:29 10° SE
Cosmos 2154 Rocket 4.4 08:50:40 34° WSW 08:52:45 44° WNW 08:58:40 10° N
BREEZE-M DEB (TANK) 4.3 08:45:45 22° WSW 08:53:13 64° NW 08:56:59 10° NE
SWARM C 4.4 08:53:21 69° W 08:53:21 69° W 08:56:37 10° N
SWARM A 4.1 08:53:26 67° W 08:53:26 67° W 08:56:40 10° N
Cosmos 1190 Rocket 3.9 08:51:32 37° SSW 08:53:40 85° WNW 08:59:00 10° NNE
DELTA 2 DEB (DPAF) 4.1 08:53:13 41° SSW 08:54:35 64° WSW 08:59:00 10° NNW
SL-8 R/B 4.0 08:53:11 35° W 08:55:04 61° NNW 08:59:50 10° NE
Cosmos 1140 Rocket 3.6 08:54:55 38° SW 08:56:49 63° WNW 09:02:02 10° NNE
IKONOS-2 4.5 08:54:52 24° SSE 08:57:22 86° E 09:01:39 10° NNW
Meteor 1-21 4.3 08:56:46 10° NNW 09:02:27 59° W 09:05:54 24° SSW
ASTRO E2 3.8 09:05:37 27° S 09:05:37 27° S 09:08:57 10° ESE
MSX 3.8 09:01:01 10° N 09:06:45 74° WNW 09:10:11 25° SSW
CZ-4C R/B 3.3 09:04:27 23° S 09:06:54 83° W 09:11:08 10° NNW
CZ-4B R/B 3.8 09:02:22 10° NNE 09:07:10 60° ESE 09:10:42 17° S
Cosmos 1954 Rocket 4.1 09:04:41 25° S 09:07:50 80° ESE 09:13:10 10° NNE
Okean 2 3.8 09:04:18 10° NNW 09:08:15 42° W 09:09:08 36° SW
Cosmos 44 4.0 09:03:52 10° NNW 09:09:01 57° NE 09:13:49 10° SE
BREEZE-M DEB (TANK) 4.3 09:06:20 10° NW 09:09:14 28° NNE 09:11:53 10° ENE
Cosmos 1844 Rocket 4.4 09:04:52 10° SSE 09:09:33 28° ESE 09:14:16 10° NE
ARIANE 5 R/B 2.6 09:06:41 10° NNE 09:11:53 82° ESE 09:15:40 19° S
Meteor 1-28 Rocket 4.4 09:16:25 24° W 09:16:25 24° W 09:19:11 10° NW
ADEOS Rocket 4.1 09:16:08 20° WSW 09:16:39 21° W 09:20:43 10° NW
Cosmos 1603 3.9 09:12:29 10° NNW 09:18:06 72° ENE 09:23:44 10° SSE
Milstar 3 3.9 09:15:44 19° SSW 09:18:44 26° SSE 09:24:12 10° ESE
CZ-2D R/B 3.6 09:15:34 10° NNE 09:19:34 69° E 09:22:36 17° S
CZ-2D R/B 4.3 09:20:40 10° NW 09:21:31 10° WNW 09:22:23 10° WNW
Cosmos 1959 Rocket 4.4 09:17:53 15° S 09:23:03 83° W 09:29:15 10° N
Cosmos 864 Rocket 4.5 09:17:39 14° S 09:23:03 85° W 09:29:21 10° N
ADEOS II 3.7 09:19:46 10° NNW 09:23:32 20° WNW 09:25:41 16° W
Spot 4 Rocket 4.5 09:19:04 10° NNE 09:24:11 62° ESE 09:29:16 10° S
Cosmos 1782 Rocket 3.6 09:23:31 24° SSW 09:25:56 59° W 09:30:15 10° N
CZ-2C R/B 4.2 09:22:51 10° NNE 09:26:17 34° E 09:29:43 10° SSE
Sich 1 Rocket 4.0 09:24:34 10° S 09:28:53 63° E 09:33:15 10° NNE
Cosmos 1805 3.2 09:26:33 17° S 09:29:30 86° E 09:33:24 10° N
SL-8 Rocket 4.1 09:24:57 18° SSW 09:29:32 59° W 09:35:38 10° N
Cosmos 2366 rocket 4.0 09:26:46 14° SSW 09:32:18 70° W 09:38:40 10° N
IRS-1C 4.4 09:27:30 10° N 09:32:40 51° WNW 09:36:26 18° SW
SL-16 R/B 3.5 09:30:48 10° WNW 09:34:34 18° W 09:35:34 18° WSW
CZ-3 R/B 4.4 09:15:06 17° SW 09:34:56 35° S 09:44:09 10° ESE
ATLAS CENTAUR R/B 1.8 09:33:49 23° WSW 09:35:43 41° NW 09:39:27 10° NNE
Cosmos 676 Rocket 4.2 09:32:40 19° SW 09:36:22 58° WNW 09:41:39 10° N
KORONAS-FOTON 3.8 09:32:52 10° NNW 09:36:45 62° W 09:40:36 10° S
Cosmos 2263 Rocket 3.2 09:36:11 17° WSW 09:39:42 32° WNW 09:44:48 10° N
Cosmos 1726 4.4 09:40:55 10° SE 09:43:50 23° E 09:46:48 10° NE
Cosmos 1707 4.2 09:41:16 10° NW 09:44:04 19° W 09:45:07 17° WSW
SL-14 R/B 4.2 09:41:14 10° N 09:45:02 50° E 09:48:50 10° SSE
PAYLOAD A 4.1 09:39:59 10° NNE 09:45:26 84° WNW 09:50:44 10° SSW
ALOS 2.7 09:45:26 10° NNE 09:50:05 63° E 09:54:41 10° S
CZ-4C R/B 3.1 09:42:59 10° NW 09:50:29 60° WSW 09:58:54 10° SSE
GEOS 3 Rocket 3.6 09:45:11 10° SSE 09:50:32 77° SW 09:55:53 10° NW
Cosmos 1741 Rocket 4.2 09:50:33 10° S 09:55:45 74° ESE 10:01:02 10° NNE
Cosmos 1733 3.5 09:52:52 12° SSW 09:56:18 49° W 10:00:03 10° N
SL-08 R/B 3.7 09:53:30 10° S 09:58:13 46° W 10:02:59 10° NNW
Cosmos 1766 3.2 09:54:40 10° SSW 09:58:30 64° W 10:02:23 10° N
Meteor 2-20 Rocket 4.4 09:52:31 10° NNW 09:58:38 70° W 10:04:43 10° S
Cosmos 1470 4.2 09:56:00 10° SSE 09:59:39 38° E 10:03:18 10° NNE
Cosmos 1763 Rocket 3.8 09:55:50 10° NNW 10:01:11 77° ENE 10:06:26 10° SSE
USA 281 3.9 09:56:01 10° SE 10:02:25 60° ENE 10:08:52 10° NNW
Cosmos 1300 Rocket 3.8 10:02:12 10° SSW 10:06:22 48° W 10:10:36 10° N
Cosmos 1727 Rocket 4.0 10:00:39 10° NNW 10:06:50 68° W 10:13:03 10° S
Meteor 1-15 Rocket 4.5 10:01:55 10° SSW 10:07:45 60° WNW 10:13:34 10° N
USA 290 2.2 10:06:43 10° NNW 10:09:57 88° ENE 10:13:11 10° SSE
Cosmos 1975 Rocket 4.0 10:09:45 10° NNW 10:13:30 28° W 10:17:13 10° SSW
Cosmos 1484 Rocket 3.1 10:09:52 10° NNE 10:13:50 72° E 10:17:48 10° S
Cosmos 1943 3.7 10:09:12 10° NW 10:14:26 38° WSW 10:19:38 10° S
Cosmos 1844 3.8 10:09:22 10° SSW 10:14:54 83° ESE 10:20:29 10° NNE
Cosmos 1340 4.1 10:13:09 10° NW 10:15:57 20° W 10:18:45 10° SW
CZ-2C R/B 2.8 10:13:16 10° N 10:17:33 40° WNW 10:21:51 10° SW
Cosmos 1934 Rocket 4.5 10:13:21 10° S 10:19:22 66° E 10:25:31 10° NNE
SL-24 R/B - RUBIN 2 3.6 10:14:35 10° NW 10:19:22 62° WSW 10:23:42 10° SSE
Cosmos 1400 Rocket 4.1 10:16:32 10° SW 10:19:39 23° WNW 10:22:48 10° NNW
Cosmos 1626 3.0 10:16:47 10° NNW 10:20:00 29° W 10:23:12 10° SSW
CZ-3B R/B 4.0 10:12:55 10° WSW 10:20:37 26° S 10:24:51 10° SE
USA 215 3.8 10:21:19 10° NE 10:27:35 51° NW 10:33:49 10° WSW
